Location: Sagn�
(15.2046°N, 12.7898°W)
Time: 13:20:13
(UTC+00:00)

Delta 202 - Pass Details

Date: 08 May 2021
Orbit: 781 x 2713 km, 18.5° (Epoch: 14 June)

Event Time Altitude Azimuth Distance (km) Brightness Sun altitude
Rises 20:38:02 0° 257° (WSW) 3,460 7.7 -20.4°
Reaches altitude 10° 20:40:41 10° 257° (WSW) 2,409 6.8 -21.0°
Maximum altitude 20:46:06 88° 172° (S) 778 3.4 -22.2°
Enters shadow 20:47:41 47° 81° (E) 1,024 3.8 -22.5°
